K5KVN-2 Weather Reports


Display with metric or nautical units.
time (UTC)temp
F
wind
direction
speed
MPH
gust
MPH
rain 1hr
in
rain 24hr
in
rain mn
in
humidity
%
barometer
mb
20260503023249 54 306 1.0 3.0 0.00 0.00 0.00 52 1020.1
20260503022250 54 304 0.0 0.0 0.00 0.00 0.00 57 1020.1
20260503021248 55 298 0.0 0.0 0.00 0.00 0.00 51 1020.0
20260503020728 55 299 0.0 0.0 0.00 0.00 0.00 51 1020.0
20260503015248 55 294 0.0 1.0 0.00 0.00 0.00 51 1020.0
20260503014248 56 288 0.0 0.0 0.00 0.00 0.00 52 1019.8
20260503013248 56 288 1.0 2.0 0.00 0.00 0.00 50 1019.7
20260503012246 56 298 1.0 2.0 0.00 0.00 0.00 51 1019.7
20260503011246 57 280 2.0 3.0 0.00 0.00 0.00 50 1019.5
20260503010244 58 281 2.0 4.0 0.00 0.00 0.00 49 1019.4
20260503005244 59 282 2.0 4.0 0.00 0.00 0.00 46 1019.4
20260503004246 60 293 2.0 4.0 0.00 0.00 0.00 44 1019.4
20260503003245 61 298 3.0 6.0 0.00 0.00 0.00 42 1019.4
20260503002244 62 304 3.0 8.0 0.00 0.00 0.00 40 1019.4
20260503001717 62 314 3.0 7.0 0.00 0.00 0.00 40 1019.5
20260503000237 62 280 4.0 8.0 0.00 0.00 0.00 41 1019.5
20260502235237 62 277 4.0 8.0 0.00 0.00 0.00 41 1019.5
20260502234237 62 329 5.0 9.0 0.00 0.00 0.00 41 1019.5
20260502233238 63 319 6.0 10.0 0.00 0.00 0.00 39 1019.5
20260502232235 63 309 6.0 10.0 0.00 0.00 0.00 40 1019.6
20260502231232 63 320 6.0 11.0 0.00 0.00 0.00 39 1019.5
20260502230231 63 306 6.0 11.0 0.00 0.00 0.00 38 1019.5
20260502225717 64 299 4.0 9.0 0.00 0.00 0.00 42 1019.4
20260502224229 64 336 6.0 11.0 0.00 0.00 0.00 39 1019.4
20260502223233 64 346 7.0 13.0 0.00 0.00 0.00 40 1019.6
20260502222231 64 335 4.0 10.0 0.00 0.00 0.00 39 1019.4
20260502221230 64 277 6.0 11.0 0.00 0.00 0.00 40 1019.3
20260502220231 64 298 6.0 11.0 0.00 0.00 0.00 38 1019.4
20260502215230 64 288 7.0 12.0 0.00 0.00 0.00 35 1019.5
20260502214230 64 299 8.0 14.0 0.00 0.00 0.00 38 1019.5
20260502213715 64 328 7.0 13.0 0.00 0.00 0.00 39 1019.7
20260502212229 64 301 7.0 11.0 0.00 0.00 0.00 36 1019.7
20260502211229 65 289 8.0 17.0 0.00 0.00 0.00 37 1019.8
20260502210229 65 280 5.0 13.0 0.00 0.00 0.00 40 1019.8
20260502205706 65 303 7.0 13.0 0.00 0.00 0.00 38 1020.0
20260502204229 65 333 8.0 16.0 0.00 0.00 0.00 40 1020.2
20260502203229 65 288 7.0 14.0 0.00 0.00 0.00 38 1020.2
20260502202229 65 294 9.0 15.0 0.00 0.00 0.00 40 1020.2
20260502201227 65 329 7.0 13.0 0.00 0.00 0.00 39 1020.3
20260502200228 65 284 6.0 12.0 0.00 0.00 0.00 38 1020.3
20260502195225 65 321 8.0 14.0 0.00 0.00 0.00 39 1020.3
20260502194658 65 333 8.0 13.0 0.00 0.00 0.00 37 1020.4
20260502193223 65 321 7.0 14.0 0.00 0.00 0.00 39 1020.4
20260502192224 65 278 8.0 15.0 0.00 0.00 0.00 38 1020.5
20260502191223 65 298 7.0 17.0 0.00 0.00 0.00 36 1020.5
20260502190225 65 321 9.0 16.0 0.00 0.00 0.00 39 1020.5
20260502185223 64 308 9.0 18.0 0.00 0.00 0.00 37 1020.4
20260502184223 64 275 8.0 16.0 0.00 0.00 0.00 40 1020.5
20260502183223 64 315 8.0 14.0 0.00 0.00 0.00 44 1020.5
20260502182701 65 318 8.0 17.0 0.00 0.00 0.00 41 1020.6
20260502181223 65 307 6.0 13.0 0.00 0.00 0.00 42 1020.6
20260502180707 64 297 7.0 14.0 0.00 0.00 0.00 44 1020.7
20260502170223 62 5 6.0 13.0 0.00 0.00 0.00 43 1021.4
20260502164223 62 319 6.0 12.0 0.00 0.00 0.00 43 1021.5
20260502163222 62 355 5.0 12.0 0.00 0.00 0.00 46 1021.5
20260502162224 61 334 6.0 14.0 0.00 0.00 0.00 48 1021.5
20260502161224 61 42 7.0 12.0 0.00 0.00 0.00 48 1021.4
20260502160224 61 309 7.0 12.0 0.00 0.00 0.00 47 1021.5
20260502152222 59 355 5.0 11.0 0.00 0.00 0.00 46 1021.1
20260502151223 58 5 6.0 11.0 0.00 0.00 0.00 48 1021.2
20260502150225 58 342 6.0 11.0 0.00 0.00 0.00 49 1021.4
20260502130215 47 161 0.0 0.0 0.00 0.00 0.00 90 1020.6
20260502123700 46 240 0.0 1.0 0.00 0.00 0.00 92 1020.5
20260502122213 45 240 0.0 0.0 0.00 0.00 0.00 92 1020.3
20260502121212 45 240 0.0 0.0 0.00 0.00 0.00 93 1020.2
20260502120648 44 240 0.0 0.0 0.00 0.00 0.00 93 1020.2
20260502115210 44 240 0.0 1.0 0.00 0.00 0.00 93 1020.0
20260502114212 44 259 0.0 0.0 0.00 0.00 0.00 93 1019.9
20260502113210 43 311 0.0 1.0 0.00 0.00 0.00 93 1019.8
20260502112647 43 311 0.0 0.0 0.00 0.00 0.00 93 1019.7
20260502111211 42 311 0.0 1.0 0.00 0.00 0.00 93 1019.6
20260502110212 42 343 0.0 1.0 0.00 0.00 0.00 93 1019.5
20260502105208 42 344 0.0 1.0 0.00 0.00 0.00 93 1019.4
20260502104209 42 13 0.0 2.0 0.00 0.00 0.00 93 1019.3
20260502102209 42 294 0.0 0.0 0.00 0.00 0.00 93 1019.2
20260502101211 42 294 0.0 0.0 0.00 0.00 0.00 92 1019.1
20260502100652 42 294 0.0 0.0 0.00 0.00 0.00 92 1019.1
20260502090202 42 326 0.0 0.0 0.00 0.00 0.00 93 1019.0
20260502070158 43 326 0.0 0.0 0.00 0.00 0.00 88 1019.0
20260502065155 43 326 0.0 0.0 0.00 0.00 0.00 87 1019.0
20260502064157 44 326 0.0 0.0 0.00 0.00 0.00 87 1018.9
20260502062155 44 326 0.0 0.0 0.00 0.00 0.00 84 1019.0
20260502061157 44 326 0.0 0.0 0.00 0.00 0.00 82 1019.0
20260502060627 45 326 0.0 0.0 0.00 0.00 0.00 82 1019.0
20260502055148 46 326 0.0 0.0 0.00 0.00 0.00 82 1018.9
20260502054627 46 326 0.0 0.0 0.00 0.00 0.00 82 1018.9
20260502053147 45 326 0.0 0.0 0.00 0.00 0.00 84 1018.9
20260502052148 45 326 0.0 0.0 0.00 0.00 0.00 82 1019.1
20260502051148 45 326 0.0 0.0 0.00 0.00 0.00 84 1019.2
20260502050149 46 326 0.0 0.0 0.00 0.00 0.00 82 1019.2
20260502045146 46 326 0.0 0.0 0.00 0.00 0.00 80 1019.1
20260502044144 46 326 0.0 0.0 0.00 0.00 0.00 80 1019.2
20260502043146 46 326 0.0 0.0 0.00 0.00 0.00 78 1019.0
20260502042141 47 326 0.0 0.0 0.00 0.00 0.00 77 1018.9
20260502041142 47 326 0.0 0.0 0.00 0.00 0.00 77 1019.0
20260502040137 48 326 0.0 0.0 0.00 0.00 0.00 75 1019.1
20260502035138 49 326 0.0 0.0 0.00 0.00 0.00 73 1019.0
20260502034612 49 326 0.0 0.0 0.00 0.00 0.00 71 1019.1
20260502033609 49 326 0.0 0.0 0.00 0.00 0.00 70 1019.0
20260502030129 51 326 0.0 0.0 0.00 0.00 0.00 66 1019.0
20260502025131 51 326 0.0 0.0 0.00 0.00 0.00 62 1018.9
20260502024134 52 326 0.0 0.0 0.00 0.00 0.00 62 1018.8